KSEA

Seattle-Tacoma

Airport
ICAO code
KSEA
Summary
ICAO Region
NAM
ICAO Territory
Location

SeaTac, Washington,

Coordinates
47° 26' 55" N , 122° 18' 36" W
KCC
Airport BS
Bird Strike
Airport LOS
Parallel Runway Operation
Metar
KSEA 151721Z 20015G23KT 10SM BKN019 BKN085 12/06 A3005 RMK AO2 T01170061

Description

Seattle-Tacoma International Airport, also known as "Sea-Tac Airport" or Sea-Tac, is located in SeaTac, Washington, United States at the intersections of State Route 518, State Route 99 and State Route 509, about 1.5 miles west of Interstate 5. It serves Seattle and Tacoma, Washington as well as the rest of western Washington. The airport is the primary hub for Alaska Airlines, whose headquarters is located near the airport.

Climatology

Dry-summer subtropical ”Mediterranean" climate (Köppen climate classification Csb) - characterized by warm, dry summers and mild winters.

Runways

Designator Length Width Surface Rops
16C/34C 2873 46 CONC-F Yes/Yes
16R/34L 2873 46 CON Yes/Yes
16L/34R 3627 46 ASP Yes/Yes

Airport map

Aerial View

SKYbrary Partners:

Safety knowledge contributed by: